This is the latest recevied weather packets stored in our database for station/object W1QED. If no packets are shown the sender has not sent any weather packets the latest 10 day(s).
| Time | Temp. | Humidity | Pressure | Rain* | Wind** | Luminosity | Snow |
|---|---|---|---|---|---|---|---|
| 1777412132 | 14.44° C | 31% | 1019.7 hPa | 0 mm | - | - | - |
| 1777411838 | 14.44° C | 33% | 1019.7 hPa | 0 mm | - | - | - |
| 1777411532 | 15° C | 34% | 1019.8 hPa | 0 mm | - | - | - |
| 1777411231 | 15° C | 32% | 1019.8 hPa | 0 mm | - | - | - |
| 1777410930 | 15° C | 34% | 1019.8 hPa | 0 mm | - | - | - |
| 1777410631 | 15.56° C | 34% | 1019.9 hPa | 0 mm | - | - | - |
| 1777410330 | 15.56° C | 32% | 1019.8 hPa | 0 mm | - | - | - |
| 1777410088 | 16.11° C | 33% | 1019.8 hPa | 0 mm | - | - | - |
| 1777409727 | 16.11° C | 33% | 1020 hPa | 0 mm | - | - | - |
| 1777409426 | 16.11° C | 34% | 1020 hPa | 0 mm | - | - | - |
| 1777409135 | 16.11° C | 32% | 1020.1 hPa | 0 mm | - | - | - |
| 1777408823 | 16.11° C | 32% | 1020.1 hPa | 0 mm | - | - | - |
| 1777408523 | 16.11° C | 32% | 1020 hPa | 0 mm | - | - | - |
| 1777408222 | 16.67° C | 32% | 1019.9 hPa | 0 mm | - | - | - |
| 1777407922 | 16.67° C | 31% | 1020.1 hPa | 0 mm | - | - | - |
| 1777407619 | 16.67° C | 32% | 1020 hPa | 0 mm | - | - | - |
| 1777407326 | 16.67° C | 33% | 1020.2 hPa | 0 mm | - | - | - |
| 1777407018 | 16.67° C | 31% | 1020.3 hPa | 0 mm | - | - | - |
| 1777406718 | 16.67° C | 31% | 1020.5 hPa | 0 mm | - | - | - |
| 1777406477 | 17.22° C | 29% | 1020.3 hPa | 0 mm | - | - | - |
| 1777406119 | 16.67° C | 32% | 1020.3 hPa | 0 mm | - | - | - |
| 1777405815 | 17.22° C | 30% | 1020.4 hPa | 0 mm | - | - | - |
| 1777405518 | 17.22° C | 31% | 1020.4 hPa | 0 mm | - | - | - |
| 1777405213 | 17.22° C | 30% | 1020.4 hPa | 0 mm | - | - | - |
| 1777404912 | 17.22° C | 33% | 1020.6 hPa | 0 mm | - | - | - |
* Rain latest hour (hover to see other rain measurements)
** Current wind speed in m/s (hover to see current wind gust speed)